AXIOM-2

Last updated on Wed May 31 2023 00:02:05 GMT+0000 (Coordinated Universal Time)

1 56739U 23070A 23150.22508225 .00013293 00000+0 23809-3 0 9991 2 56739 51.6426 57.5769 0005342 36.4941 100.3182 15.50280847399002
UTC large
Height (km)
Speed (km/s)
/
Latitude / Longitude
Inclination (degrees)
Orbital Period (minutes)
Azimuth
Elevation
Range (km)
Doppler Factor

Next 0 passes for location: London (51.5072 / 0.1276)

Sorry there are no passes over London.